This demonstration page uses our WeatherBlox Daily Observations layout. Learn more.

Left ArrowRight Arrow

Hourly Observations for June 3, 2022

Temp ( °F °C ) Dew Point ( °F °C ) Humidity (%) Winds ( mph kmh ) Pressure ( in mb ) Visibility ( mi km ) Precip ( " mm )
12:31 am 00:31 Cloudy with Mist and Fog 67 19.4 65 18.3 93 93 ESE 6 9 29.72 1006 2 3 0.00 0.00
12:51 am 00:51 Cloudy with Mist and Fog 67 19.4 65 18.3 93 93 E 5 7 29.72 1006 2 3 0.00 0.00
12:58 am 00:58 Cloudy with Mist and Fog 66 19 64 18 94 94 E 5 7 29.71 1006 5 8 0.00 0.00
1:05 am 01:05 Cloudy with Mist and Fog 68 20 65 18.3 90 90 Calm 29.72 1006 2 3 0.00 0.00
1:51 am 01:51 Cloudy with Mist and Fog 66 18.9 65 18.3 96 96 ENE 5 7 29.72 1006 2 3 0.00 0.00
1:54 am 01:54 Cloudy with Mist and Fog 66 19 64 18 94 94 E 5 7 29.72 1006 2 3 0.00 0.00
2:51 am 02:51 Cloudy with Mist and Fog 66 18.9 64 17.8 93 93 ENE 5 7 29.71 1006 3 5 0.00 0.00
3:51 am 03:51 Cloudy with Mist and Fog 64 17.8 63 17.2 96 96 E 7 11 29.70 1006 3 5 0.00 0.00
4:36 am 04:36 Cloudy with Mist and Fog 64 17.8 62 16.7 93 93 NE 3 6 29.71 1006 2 3 0.00 0.00
4:43 am 04:43 Cloudy with Mist and Fog 64 17.8 62 16.7 93 93 ENE 5 7 29.71 1006 3 5 0.00 0.00
4:51 am 04:51 Cloudy with Mist and Fog 64 17.8 62 16.7 93 93 E 5 7 29.71 1006 3 5 0.00 0.00
5:51 am 05:51 Cloudy with Mist and Fog 63 17.2 62 16.7 97 97 E 5 7 29.73 1007 3 4 0.00 0.00
6:51 am 06:51 Cloudy with Mist and Fog 64 17.8 62 16.7 93 93 E 3 6 29.74 1007 3 4 0.00 0.00
6:58 am 06:58 Cloudy with Mist and Fog 64 18 63 17 94 94 E 3 6 29.74 1007 3 5 0.00 0.00
7:51 am 07:51 Cloudy with Mist and Fog 64 17.8 62 16.7 93 93 E 5 7 29.75 1007 3 5 0.00 0.00
8:51 am 08:51 Cloudy 65 18.3 63 17.2 93 93 ESE 5 7 29.75 1008 9 14 0.00 0.00
9:51 am 09:51 Cloudy with Mist and Fog 68 20 64 17.8 87 87 Calm 29.76 1008 4 6 0.00 0.00
9:58 am 09:58 Cloudy 68 20 64 18 88 88 SE 3 6 29.76 1008 10 16 0.00 0.00
10:51 am 10:51 Cloudy 71 21.7 63 17.2 76 76 ENE 5 7 29.76 1008 10 16 0.00 0.00
10:58 am 10:58 Partly Cloudy 72 22 63 17 73 73 E 3 6 29.76 1008 10 16 0.00 0.00
11:28 am 11:28 Mostly Cloudy 72 22.2 63 17.2 73 73 E 5 7 29.76 1008 10 16 0.00 0.00
11:51 am 11:51 Cloudy 71 21.7 63 17.2 76 76 SSE 9 15 29.76 1008 10 16 0.00 0.00
12:19 pm 12:19 Mostly Cloudy 72 22.2 64 17.8 76 76 ESE 6 9 29.76 1008 10 16 0.00 0.00
12:51 pm 12:51 Cloudy 73 22.8 63 17.2 71 71 SE 7 11 29.76 1008 10 16 0.00 0.00
1:20 pm 13:20 Mostly Sunny 74 23.3 63 17.2 69 69 VRB 5 7 29.76 1008 10 16 0.00 0.00
1:51 pm 13:51 Partly Cloudy 75 23.9 63 17.2 66 66 SSW 8 13 29.75 1007 10 16 0.00 0.00
2:51 pm 14:51 Mostly Sunny 76 24.4 63 17.2 64 64 SW 8 13 29.74 1007 10 16 0.00 0.00
3:51 pm 15:51 Sunny 77 25 63 17.2 62 62 S 7 11 29.73 1007 10 16 0.00 0.00
4:51 pm 16:51 Mostly Cloudy 77 25 63 17.2 62 62 SW 12 19 29.74 1007 10 16 0.00 0.00
5:51 pm 17:51 Mostly Cloudy 74 23.3 63 17.2 69 69 SSW 9 15 29.75 1007 10 16 0.00 0.00
6:51 pm 18:51 Sunny 74 23.3 60 15.6 62 62 WSW 10 17 29.75 1008 10 16 0.00 0.00
7:51 pm 19:51 Sunny 75 23.9 47 8.3 37 37 NW 8 13 29.77 1008 10 16 0.00 0.00
8:51 pm 20:51 Clear 73 22.8 47 8.3 40 40 NW 9 15 29.78 1008 10 16 0.00 0.00
9:51 pm 21:51 Clear 71 21.7 48 8.9 44 44 NNW 5 7 29.80 1009 10 16 0.00 0.00
10:51 pm 22:51 Clear 68 20 50 10 53 53 Calm 29.81 1009 10 16 0.00 0.00
11:51 pm 23:51 Clear 67 19.4 49 9.4 53 53 N 5 7 29.82 1010 10 16 0.00 0.00

Powered by AerisWeather